CZ-3B DEB, 40179

Orbit data source: Space-Track

CZ-3B DEB, 40179 is space debris originally from a launch on Mon, 19 Dec 2011 UTC launched from the Xichang Space Center, China (XSC). Debris objects in space refer to the collection of defunct objects orbiting the Earth. Examples of debris include non-operational satellites, rocket bodies, and fragments generated from explosions, collisions, or faulty payload assembly.

Loading next visibility...
CZ-3B DEB details
Identifier
40179, 2011-077C
Orbit
Molniya
Last TLE update2 days ago
Origin
Flag of CNCASC (CN / PRC)
ManufacturerCALT
MissionSpacecraft
Bus & MotorUnknown
MassUnknown
Launch date (UTC)
2011-12-19 (13 years ago)
Launch vehicleUnknown
Launch site
Xichang Space Center, China (XSC)
Object type
Payload
Rocket body
Debris
Shape & HBRUnknown
Radar Cross SectionMedium (>0.1 m² and <1 m²)

Expand to show TLE details & history

TLE from 2 days ago
0 CZ-3B DEB
1 40179U 11077C   24339.54316821 -.00000193  00000-0  98979-3 0  9997
2 40179  25.6105  92.0712 7395740 248.8073  22.6565  1.91845547 77363
Epoch: 2024-12-04T13:02Z
Definitive object data (Epoch: 2024-12-04T13:02:09.733Z)
Latitude0.0001°
Longitude-177.4335°
Altitude10,580.504 km
Speed5.695 km/s
True Right ascension06h 07m 46s
True Declination0° 00' 00"
Sunlit
Object was in daylight at TLE epoch
Visualization TLE readout
Latitude25.29776°
Longitude-97.59895°
Altitude38,619.425 km
Speed1.774 km/s
Apparent Right ascension11h 51m 15s
Apparent Declination21° 41' 14"
Sunlit
Object is in daylight
Visualization observer readout
Local Sidereal Time07:47:57
Azimuth90.511° ESE
Elevation35.772°
Doppler factor1
Orbital elements
Apogee altitude41,221.56 km
Perigee altitude747.86 km
Semi-major axis27,362.847 km
Eccentricity0.739574
Inclination25.6105°
RAAN92.0712°
Arg. of periapsis248.8073°
True anomaly111.2275°
Mean anomaly22.6565°
Eccentric anomaly58.96528°
Mean motion0.47951 °/min
BSTAR0.00098979
Orbital period750.76 mins
Loading maneuver chart data...
Loading historical data...
Loading historical data...
Loading historical data...
Loading historical data...
Loading historical data...
Loading historical data...
Loading historical data...

CZ-3B DEB Visibility forecast

Observer location: undefined°, undefined

Span
Click to sort rows by Start time (UTC) header in descending order
Start Az.
Max El. time (UTC)
Max El. Az.
Max El.
End time (UTC)
End Az.
225 mins2024-12-06 09:45:44.186Z90.529° ESE2024-12-06 11:38:44.186Z97.466° ESE34.063°2024-12-06 13:30:44.186Z96.042° ESE
257 mins2024-12-07 05:28:44.186Z84.518° E2024-12-07 09:45:44.186Z97.111° ESE34.156°2024-12-07 09:45:44.186Z97.111° ESE
|